Route Details

Aircraft Information
Group: European Fleet
Types: A30F, A31F, B738
Route Data
Distance: 584nm
Duration: 1h 50m
Origin METAR: LIRF 010620Z 06003KT CAVOK 02/01 Q1024 NOSIG
Dest. METAR: EDDK 010620Z AUTO 28010KT 9999 SCT025 05/02 Q1020 NOSIG
Freight Data
(for Feb 1, 2023)
Load Factor:
91%
Manifested Cargo: 58,217lbs
Financial History
Total Freight: 152,509lbs
Average Load: 0lbs/flt
Fuel Used: 83,493lbs
Avg. Fuel Used: 0lbs/flt
Fuel Expense: $35,742
Avg. Fuel Expense: $0
Avg. Fuel Cost: $0/lbs
Total Gross Income: $295,572
Pilot Pay: $1,115
Total Expenses: $50,685
Total Revenue: $206,735
Average Revenue: $0

Capitol Logistics 570




LIRF
Leonardo da Vinci International Airport
Rome, IT
EDDK
Cologne Bonn Airport
Cologne, DE